EN

Hourly Weather Novyi Step

Today, 14 May, Friday

Time Temperature Precipitation Wind Pressure Humidity
00:00 +12°C° 0 mm 2 mps 748 mmHg 75%
01:00 +12°C° 0 mm 2 mps 748 mmHg 77%
02:00 +12°C° 0 mm 2 mps 748 mmHg 78%
03:00 +10°C° 0 mm 2 mps 747 mmHg 80%
04:00 +10°C° 0 mm 2 mps 747 mmHg 83%
05:00 +10°C° 0 mm 2 mps 747 mmHg 85%
06:00 +13°C° 0 mm 2 mps 747 mmHg 77%
07:00 +14°C° 0 mm 3 mps 747 mmHg 69%
08:00 +17°C° 0 mm 3 mps 748 mmHg 60%
09:00 +18°C° 0 mm 4 mps 748 mmHg 57%
10:00 +20°C° 0 mm 5 mps 748 mmHg 54%
11:00 +21°C° 0 mm 5 mps 748 mmHg 51%
12:00 +21°C° 0 mm 5 mps 747 mmHg 51%
13:00 +22°C° 0 mm 6 mps 747 mmHg 51%
14:00 +22°C° 0 mm 6 mps 747 mmHg 51%
15:00 +22°C° 0 mm 6 mps 747 mmHg 53%
16:00 +21°C° 0 mm 6 mps 747 mmHg 56%
17:00 +21°C° 0 mm 6 mps 747 mmHg 59%
18:00 +19°C° 0 mm 6 mps 748 mmHg 66%
19:00 +16°C° 0 mm 5 mps 748 mmHg 73%
20:00 +14°C° 0 mm 5 mps 748 mmHg 79%
21:00 +14°C° 0 mm 4 mps 748 mmHg 82%
22:00 +13°C° 0 mm 4 mps 749 mmHg 85%
23:00 +13°C° 0 mm 3 mps 749 mmHg 88%

Tomorrow, 15 May, Saturday

Time Temperature Precipitation Wind Pressure Humidity
00:00 +13°C° 0 mm 3 mps 749 mmHg 87%
01:00 +12°C° 0 mm 3 mps 749 mmHg 85%
02:00 +12°C° 0 mm 3 mps 749 mmHg 84%
03:00 +12°C° 0 mm 3 mps 749 mmHg 84%
04:00 +13°C° 0 mm 2 mps 749 mmHg 84%
05:00 +13°C° 0 mm 2 mps 750 mmHg 85%
06:00 +15°C° 0 mm 2 mps 750 mmHg 76%
07:00 +17°C° 0 mm 2 mps 750 mmHg 67%
08:00 +19°C° 0 mm 2 mps 750 mmHg 58%
09:00 +20°C° 0 mm 2 mps 751 mmHg 54%
10:00 +21°C° 0 mm 3 mps 751 mmHg 50%
11:00 +22°C° 0 mm 3 mps 751 mmHg 46%
12:00 +24°C° 0 mm 3 mps 751 mmHg 44%
13:00 +25°C° 0 mm 4 mps 750 mmHg 42%
14:00 +25°C° 0 mm 4 mps 750 mmHg 41%
15:00 +23°C° 0 mm 4 mps 750 mmHg 46%
16:00 +22°C° 0 mm 4 mps 750 mmHg 51%
17:00 +21°C° 0 mm 5 mps 750 mmHg 57%
18:00 +19°C° 0 mm 4 mps 750 mmHg 63%
19:00 +18°C° 0 mm 3 mps 750 mmHg 70%
20:00 +16°C° 0 mm 3 mps 751 mmHg 76%
21:00 +15°C° 0 mm 2 mps 750 mmHg 77%
22:00 +15°C° 0 mm 2 mps 750 mmHg 77%
23:00 +14°C° 0 mm 1 mps 750 mmHg 77%

Day after tomorrow, 16 May, Sunday

Time Temperature Precipitation Wind Pressure Humidity
00:00 +14°C° 0 mm 1 mps 750 mmHg 77%
01:00 +14°C° 0 mm 1 mps 750 mmHg 77%
02:00 +13°C° 0 mm 0 mps 750 mmHg 77%
03:00 +13°C° 0 mm 1 mps 750 mmHg 77%
04:00 +13°C° 0 mm 1 mps 750 mmHg 77%
05:00 +13°C° 0 mm 1 mps 750 mmHg 78%
06:00 +15°C° 0 mm 2 mps 750 mmHg 71%
07:00 +17°C° 0 mm 2 mps 750 mmHg 65%
08:00 +19°C° 0 mm 2 mps 750 mmHg 59%
09:00 +21°C° 0 mm 3 mps 750 mmHg 54%
10:00 +22°C° 0 mm 3 mps 750 mmHg 50%
11:00 +25°C° 0 mm 3 mps 750 mmHg 46%
12:00 +26°C° 0 mm 3 mps 749 mmHg 43%
13:00 +26°C° 0 mm 3 mps 749 mmHg 40%
14:00 +27°C° 0 mm 3 mps 749 mmHg 37%
15:00 +27°C° 0 mm 2 mps 748 mmHg 40%
16:00 +27°C° 0 mm 2 mps 748 mmHg 43%
17:00 +26°C° 0 mm 1 mps 747 mmHg 45%
18:00 +25°C° 0 mm 2 mps 747 mmHg 48%
19:00 +23°C° 0 mm 2 mps 747 mmHg 51%
20:00 +21°C° 0 mm 2 mps 747 mmHg 54%
21:00 +20°C° 0 mm 2 mps 747 mmHg 56%
22:00 +20°C° 0 mm 2 mps 747 mmHg 57%
23:00 +19°C° 0 mm 3 mps 746 mmHg 59%

17 May, Monday

Time Temperature Precipitation Wind Pressure Humidity
00:00 +19°C° 0.2 mm 2 mps 746 mmHg 64%
01:00 +18°C° 0.2 mm 2 mps 746 mmHg 68%
02:00 +17°C° 0.2 mm 2 mps 746 mmHg 73%
03:00 +17°C° 2.4 mm 2 mps 746 mmHg 81%
04:00 +17°C° 2.4 mm 2 mps 745 mmHg 88%
05:00 +16°C° 2.4 mm 2 mps 745 mmHg 95%
06:00 +17°C° 0.3 mm 2 mps 745 mmHg 90%
07:00 +18°C° 0.3 mm 2 mps 745 mmHg 85%
08:00 +19°C° 0.3 mm 2 mps 745 mmHg 80%
09:00 +20°C° 0 mm 2 mps 745 mmHg 74%
10:00 +21°C° 0 mm 2 mps 746 mmHg 68%
11:00 +23°C° 0 mm 1 mps 746 mmHg 62%
12:00 +25°C° 0.1 mm 2 mps 746 mmHg 56%
13:00 +26°C° 0.1 mm 2 mps 746 mmHg 51%
14:00 +27°C° 0.1 mm 2 mps 745 mmHg 45%
15:00 +26°C° 0 mm 3 mps 745 mmHg 50%
16:00 +25°C° 0 mm 3 mps 745 mmHg 55%
17:00 +23°C° 0 mm 4 mps 745 mmHg 60%
18:00 +21°C° 0.5 mm 3 mps 746 mmHg 68%
19:00 +19°C° 0.5 mm 3 mps 746 mmHg 76%
20:00 +18°C° 0.5 mm 3 mps 747 mmHg 84%
21:00 +17°C° 0.1 mm 3 mps 747 mmHg 85%
22:00 +17°C° 0.1 mm 2 mps 747 mmHg 85%
23:00 +16°C° 0.1 mm 2 mps 747 mmHg 85%

18 May, Tuesday

Time Temperature Precipitation Wind Pressure Humidity
00:00 +16°C° 0 mm 2 mps 747 mmHg 87%
01:00 +16°C° 0 mm 2 mps 747 mmHg 88%
02:00 +15°C° 0 mm 2 mps 748 mmHg 89%
03:00 +15°C° 0 mm 2 mps 748 mmHg 89%
04:00 +15°C° 0 mm 2 mps 748 mmHg 90%
05:00 +15°C° 0 mm 1 mps 748 mmHg 91%
06:00 +18°C° 0 mm 1 mps 748 mmHg 84%
07:00 +19°C° 0 mm 1 mps 748 mmHg 77%
08:00 +20°C° 0 mm 2 mps 749 mmHg 70%
09:00 +23°C° 0 mm 2 mps 749 mmHg 62%
10:00 +24°C° 0 mm 2 mps 749 mmHg 55%
11:00 +25°C° 0 mm 2 mps 749 mmHg 47%
12:00 +26°C° 0 mm 3 mps 748 mmHg 46%
13:00 +26°C° 0 mm 4 mps 748 mmHg 45%
14:00 +27°C° 0 mm 6 mps 748 mmHg 44%
15:00 +26°C° 0 mm 6 mps 748 mmHg 48%
16:00 +24°C° 0 mm 6 mps 748 mmHg 52%
17:00 +23°C° 0 mm 6 mps 747 mmHg 57%
18:00 +21°C° 0 mm 6 mps 747 mmHg 64%
19:00 +20°C° 0 mm 5 mps 747 mmHg 71%
20:00 +18°C° 0 mm 4 mps 747 mmHg 79%
21:00 +17°C° 0.4 mm 4 mps 747 mmHg 82%
22:00 +17°C° 0.4 mm 4 mps 748 mmHg 85%
23:00 +17°C° 0.4 mm 4 mps 748 mmHg 88%

19 May, Wednesday

Time Temperature Precipitation Wind Pressure Humidity
00:00 +15°C° 0.3 mm 4 mps 747 mmHg 89%
01:00 +15°C° 0.3 mm 4 mps 747 mmHg 89%
02:00 +15°C° 0.3 mm 5 mps 746 mmHg 90%
03:00 +15°C° 0 mm 5 mps 746 mmHg 91%
04:00 +15°C° 0 mm 5 mps 746 mmHg 91%
05:00 +15°C° 0 mm 5 mps 747 mmHg 92%
06:00 +16°C° 0 mm 5 mps 747 mmHg 88%
07:00 +16°C° 0 mm 5 mps 747 mmHg 84%
08:00 +17°C° 0 mm 5 mps 748 mmHg 80%
09:00 +17°C° 0.1 mm 5 mps 748 mmHg 77%
10:00 +17°C° 0.1 mm 5 mps 748 mmHg 73%
11:00 +17°C° 0.1 mm 5 mps 749 mmHg 70%
12:00 +17°C° 0.3 mm 5 mps 749 mmHg 70%
13:00 +16°C° 0.3 mm 5 mps 749 mmHg 69%
14:00 +16°C° 0.3 mm 5 mps 749 mmHg 69%
15:00 +15°C° 0.4 mm 5 mps 749 mmHg 71%
16:00 +15°C° 0.4 mm 5 mps 749 mmHg 72%
17:00 +14°C° 0.4 mm 4 mps 749 mmHg 74%
18:00 +13°C° 0.1 mm 4 mps 749 mmHg 76%
19:00 +13°C° 0.1 mm 4 mps 750 mmHg 77%
20:00 +12°C° 0.1 mm 4 mps 750 mmHg 79%
21:00 +12°C° 0 mm 3 mps 750 mmHg 80%
22:00 +11°C° 0 mm 3 mps 750 mmHg 82%
23:00 +11°C° 0 mm 3 mps 750 mmHg 83%
Show more

We Need Your Consent

Meteoprog and our Service Providers may store and access personal data such as cookies, device identifiers or other similar technologies on your device and process such data to personalise content and ads, as well as provide social media features and to analyse the traffic.

  • Store and/or access information on your device

    Cookies, device identifiers or other information can be stored or accessed on your device for the purposes indicated above.

  • Personalised ads and content, ad and content measurement, audience insights, and products development

    Ads and content can be personalised based on a profile. More data can be added to better personalise ads and content. Ad and content performance can be measured. Insights about the audience who saw the ads and content can be derived. Such data can be used to develop or improve user’s experience, systems and software.

By clicking ‘I Agree’ you will allow the use of indicated cookies, device identifiers, web beacons or other similar technologies. Your settings can be changed in the browser on your device.

For certain purposes, legitimate interests may be relied on, rather than consent. You can read more about this in our Privacy and Cookie Policy.